Hourly Data Report for July 26, 2021

BONAVISTA
NEWFOUNDLAND
Current Station Operator: ECCC - MSC

48°40'02.000" N
53°06'51.000" W
25.60 m
8400601
71178
AVA

Download Data

Hourly Data (July 2021)
Hourly Data Report for July 26, 2021
TIME
LST
Temp Definition
°C
Dew Point Definition
°C
Rel Hum Definition
%
Precip. Amount Definition
mm

Wind Dir Definition
10's deg

Wind Spd Definition
km/h
Visibility Definition
km
Stn Press Definition
kPa
Hmdx Definition


Wind Chill Definition


Weather Definition


00:30 11.5 11.1 97 0.0 17 20   101.34     LegendNANA
01:30 11.1 10.7 97 0.0 18 15   101.34     LegendNANA
02:30 11.2 10.8 97 0.0 19 17   101.34     LegendNANA
03:30 11.9 11.5 97 0.0 21 14   101.35     LegendNANA
04:30 12.2 11.7 97 0.0 18 11   101.36     LegendNANA
05:30 12.6 12.1 97 0.0 18 12   101.37     LegendNANA
06:30 13.4 12.5 94 0.0 17 18   101.37     LegendNANA
07:30 13.4 12.4 93 0.0 17 19   101.38     LegendNANA
08:30 14.1 12.4 90 0.0 17 22   101.36     LegendNANA
09:30 14.2 12.5 90 0.0 17 24   101.35     LegendNANA
10:30 15.5 12.7 83 0.0 19 20   101.35     LegendNANA
11:30 16.5 13.1 80 0.0 18 23   101.32     LegendNANA
12:30 17.8 13.4 75 0.0 17 22   101.28     LegendNANA
13:30 18.1 13.2 73 0.0 16 19   101.25     LegendNANA
14:30 19.2 13.4 69 0.0 17 23   101.25     LegendNANA
15:30 18.8 13.3 70 0.0 18 19   101.25     LegendNANA
16:30 19.6 12.5 63 0.0 21 20   101.21     LegendNANA
17:30 19.0 12.2 65 0.0 21 30   101.19     LegendNANA
18:30 17.9 12.4 70 0.0 20 23   101.21     LegendNANA
19:30 16.1 12.1 78 0.0 21 29   101.27     LegendNANA
20:30 14.4 11.5 83 0.0 19 21   101.32     LegendNANA
21:30 14.9 12.3 85 0.0 22 25   101.34     LegendNANA
22:30 14.6 12.3 86 0.0 21 21   101.33     LegendNANA
23:30 12.8 11.6 92 0.0 18 17   101.34     LegendNANA

Notes on Data Quality.

Legend

  • E = Estimated
  • M = Missing
  • NA = Not Available*
  • [empty] = Indicates an unobserved value
Date modified: